User: anonymous   Login
Location: Unspecified
(0.0000°N, 0.0000°E)
Time: 15:33:28
(UTC+00:00)
Language:

APRIZESAT 8 - Orbit

View from above orbital plane
View from above orbital plane
View from above satellite
View from above satellite

Ground track
Ground track

The orbit data is extracted from the following two-line orbital elements,

1 39425U 13066K   18115.90118922 +.00000069 +00000-0 +15321-4 0  9998
2 39425 097.5881 149.2701 0051031 323.8271 035.9494 14.81029581238919
Epoch (UTC): 25 April 2018 21:37:42
Eccentricity: 0.0051031
inclination: 97.5881°
perigee height: 590 km
apogee height: 662 km
right ascension of ascending node: 149.2701°
argument of perigee: 323.8271°
revolutions per day: 14.81029581
mean anomaly at epoch: 35.9494°
orbit number at epoch: 23891

The dashed part of the orbit path shows where the satellite is in the earth's shadow,  

DLR